This is the latest recevied weather packets stored in our database for station/object KN6CW-3. If no packets are shown the sender has not sent any weather packets the latest 10 day(s).
| Time | Temp. | Humidity | Pressure | Rain* | Wind** | Luminosity | Snow |
|---|---|---|---|---|---|---|---|
| 1777310292 | 18.33° C | 40% | 1024.2 hPa | 0 mm | - | 933 W/m² | - |
| 1777309992 | 18.33° C | 40% | 1024.2 hPa | 0 mm | - | 935 W/m² | - |
| 1777309692 | 18.33° C | 41% | 1024.3 hPa | 0 mm | - | 849 W/m² | - |
| 1777309392 | 17.78° C | 42% | 1024.4 hPa | 0 mm | - | 933 W/m² | - |
| 1777309091 | 17.78° C | 43% | 1024.6 hPa | 0 mm | - | 935 W/m² | - |
| 1777308793 | 17.78° C | 44% | 1024.5 hPa | 0 mm | - | 935 W/m² | - |
| 1777308491 | 17.78° C | 43% | 1024.6 hPa | 0 mm | - | 932 W/m² | - |
| 1777308190 | 17.78° C | 43% | 1024.6 hPa | 0 mm | - | 932 W/m² | - |
| 1777307890 | 17.22° C | 44% | 1024.7 hPa | 0 mm | - | 930 W/m² | - |
| 1777307592 | 17.22° C | 42% | 1024.7 hPa | 0 mm | - | 926 W/m² | - |
| 1777307289 | 17.22° C | 43% | 1024.7 hPa | 0 mm | - | 926 W/m² | - |
| 1777306989 | 17.22° C | 44% | 1024.9 hPa | 0 mm | - | 921 W/m² | - |
| 1777306689 | 17.22° C | 43% | 1024.9 hPa | 0 mm | - | 916 W/m² | - |
| 1777306389 | 16.67° C | 44% | 1024.9 hPa | 0 mm | - | 918 W/m² | - |
| 1777306088 | 16.67° C | 45% | 1024.9 hPa | 0 mm | - | 912 W/m² | - |
| 1777305788 | 16.67° C | 46% | 1024.9 hPa | 0 mm | - | 905 W/m² | - |
| 1777305488 | 16.67° C | 45% | 1025 hPa | 0 mm | - | 904 W/m² | - |
| 1777305188 | 16.67° C | 44% | 1025 hPa | 0 mm | - | 898 W/m² | - |
| 1777304887 | 16.67° C | 45% | 1025 hPa | 0 mm | - | 891 W/m² | - |
| 1777304587 | 16.67° C | 46% | 1025 hPa | 0 mm | - | 886 W/m² | - |
| 1777304287 | 17.22° C | 45% | 1025 hPa | 0 mm | - | 882 W/m² | - |
| 1777303986 | 16.67° C | 47% | 1024.9 hPa | 0 mm | - | 870 W/m² | - |
| 1777303686 | 16.67° C | 47% | 1025 hPa | 0 mm | - | 863 W/m² | - |
| 1777303388 | 16.67° C | 49% | 1025 hPa | 0 mm | - | 860 W/m² | - |
| 1777303086 | 16.67° C | 51% | 1024.7 hPa | 0 mm | - | 849 W/m² | - |
* Rain latest hour (hover to see other rain measurements)
** Current wind speed in m/s (hover to see current wind gust speed)